Location: Powder Track
(41.8531°N, 72.3584°W)
Time: 09:26:44
(UTC+00:00)

Transit 4A - Pass Details

Date: 11 August 2021
Orbit: 871 x 974 km, 66.8° (Epoch: 20 September)

Event Time Altitude Azimuth Distance (km) Brightness Sun altitude
Rises 03:25:40 0° 238° (WSW) 3,480 - -29.3°
Exits shadow 03:26:33 - 240° (WSW) 3,166 10.6 -29.4°
Reaches altitude 10° 03:28:25 10° 248° (WSW) 2,533 10.2 -29.6°
Maximum altitude 03:33:38 33° 311° (NW) 1,441 9.3 -29.9°
Drops below altitude 10° 03:38:50 10° 14° (NNE) 2,525 10.8 -30.3°
Sets 03:41:35 0° 25° (NNE) 3,468 11.5 -30.5°
